Miscellaneous Local Product
Issued by NWS Hastings, NE

Home | Current Version | Previous Version | Graphics & Text | Print | Product List | Glossary On
Versions: 1 2 3 4 5 6 7 8 9 10 11 12 13 14 15 16 17 18 19 20 21 22 23 24 25 26 27 28 29 30 31 32 33 34 35 36 37 38 39 40 41 42 43 44 45 46 47 48 49 50
201
AXUS43 KGID 271802
MISGRI

GID CWA HOURLY WEATHER ROUNDUP
NATIONAL WEATHER SERVICE HASTINGS NE
100 PM CDT SAT MAY 27 2017

NOTE: "FAIR" INDICATES FEW OR NO CLOUDS BELOW 12,000 FEET WITH NO
SIGNIFICANT WEATHER AND/OR OBSTRUCTIONS TO VISIBILITY.

...SOUTH CENTRAL NEBRASKA...

CITY           SKY/WX    TMP DP  RH WIND       PRES   REMARKS
GRAND ISLAND   SUNNY     72  49  44 NE14      29.93R
HASTINGS       SUNNY     70  54  56 NE12      29.93R
KEARNEY        SUNNY     70  50  49 NE9       29.94S
ORD            PTSUNNY   68  47  46 VRB3      29.95S
YORK           SUNNY     72  50  46 NE14G20   29.91R
AURORA         SUNNY     71  47  42 NE9G21    29.92R
LEXINGTON      PTSUNNY   69  54  60 NE9       29.96S
HOLDREGE       MOSUNNY   67  53  59 N9G17     29.94S
HEBRON         SUNNY     69  57  66 N10       29.88R

...NEBRASKA PANHANDLE...

CITY           SKY/WX    TMP DP  RH WIND       PRES   REMARKS
CHADRON        MOSUNNY   65  44  46 VRB3      30.05S
ALLIANCE       CLOUDY    57  43  59 N13       30.06R
SCOTTSBLUFF    CLOUDY    61  43  51 N12       30.08S
SIDNEY         CLOUDY    58  47  66 N14       30.08S

...WESTERN AND NORTH CENTRAL NEBRASKA...

CITY           SKY/WX    TMP DP  RH WIND       PRES   REMARKS
VALENTINE      CLOUDY    58  48  69 NW3       30.03R
AINSWORTH      LGT RAIN  54  54  99 N6        30.03F
ONEILL         CLOUDY    63  51  66 NW10      30.00S
BROKEN BOW     CLOUDY    63  52  67 N10       29.99R
IMPERIAL       PTSUNNY   62  52  69 N12       30.03R
NORTH PLATTE   CLOUDY    61  55  81 N14       30.00S
MCCOOK         CLOUDY    66  56  70 NW18      29.97R

...EASTERN NEBRASKA...

CITY           SKY/WX    TMP DP  RH WIND       PRES   REMARKS
NORFOLK        MOSUNNY   69  49  48 NE13      29.91F
SO SIOUX CITY  PTSUNNY   70  52  52 NE12G18   29.92F
TEKAMAH        PTSUNNY   73  48  41 NE18      29.88F
ALBION         CLOUDY    70  46  42 N8        29.94S
OMAHA EPPLEY   PTSUNNY   68  57  68 VRB7      29.88S
OFFUTT AFB     CLOUDY    66  59  76 NE12      29.87F
MILLARD        PTSUNNY   68  57  67 E6        29.88S
LINCOLN        SUNNY     69  57  65 NE13      29.89F
NEBRASKA CITY  CLOUDY    66  60  81 NE15      29.86F
BEATRICE       MOSUNNY   67  59  74 NE10G17   29.87S
FALLS CITY     CLOUDY    65  61  87 NE8       29.82F

...NORTHERN KANSAS...

CITY           SKY/WX    TMP DP  RH WIND       PRES   REMARKS
GOODLAND       PTSUNNY   63  54  72 N21G26    30.02R
HILL CITY      CLOUDY    70  59  68 NW14      29.93R
NORTON         MOCLDY    68  55  64 N7G17     29.94R
PHILLIPSBURG   CLOUDY    70  57  64 N3        29.92S
SMITH CENTER   PTSUNNY   66  57  72 NE6       29.91R
HAYS           PTSUNNY   73  60  63 W12       29.90S
RUSSELL        CLOUDY    70  60  70 NW7       29.88S
CONCORDIA      PTSUNNY   69  62  78 N8        29.87R
SALINA         CLOUDY    73  63  70 N5        29.87R
TOPEKA         CLOUDY    72  64  76 SW5       29.79R



USA.gov is the U.S. government's official web portal to all federal, state and local government web resources and services.